Miscellaneous Local Product
Issued by NWS North Platte, NE

Home | Current Version | Previous Version | Graphics & Text | Print | Product List | Glossary On
Versions: 1 2 3 4 5 6 7 8 9 10 11 12 13 14 15 16 17 18 19 20 21 22 23 24 25 26 27 28 29 30 31 32 33 34 35 36 37 38 39 40 41 42 43 44 45 46 47 48 49 50
398
AXUS43 KLBF 240110
MISLBF


WESTERN AND NORTH CENTRAL NEBRASKA HOURLY WEATHER ROUNDUP
NATIONAL WEATHER SERVICE NORTH PLATTE NE
700 PM CST MON JAN 23 2017

NOTE: "FAIR" INDICATES FEW OR NO CLOUDS BELOW 12,000 FEET WITH NO
SIGNIFICANT WEATHER AND/OR OBSTRUCTIONS TO VISIBILITY.

NOTE: STATIONS NOT REPORTING VARIABLES SUCH AS SKY/WEATHER OR
PRESSURE ARE PROVIDED BY RAWS AND APRS NETWORKS AND ARE NOT UNDER
NATIONAL WEATHER SERVICE QUALITY CONTROL.

...OBSERVATIONS IN AND NEAR THE EASTERN PANHANDLE OF NEBRASKA...

CITY           SKY/WX    TMP DP  RH WIND       PRES   REMARKS
PINE RIDGE     CLOUDY    28  28 100 NE12      29.64R WCI  18
CHADRON        CLOUDY    26  24  92 NE12      29.65R WCI  16
ALLIANCE       CLEAR     31  24  75 S6        29.57R WCI  25
SIDNEY         MOCLDY    33  26  75 NE6       29.57R WCI  28
CRESCENT LAKE    N/A     36  27  69 CALM        N/A
$$

...OBSERVATIONS IN NORTHERN NEBRASKA AND FAR SOUTHERN SOUTH DAKOTA...

CITY           SKY/WX    TMP DP  RH WIND       PRES   REMARKS
WINNER         CLOUDY    32  27  81 SE15      29.69S WCI  22
VALENTINE      CLEAR     34  27  75 E9        29.64R WCI  27
THEDFORD       CLEAR     36  29  78 SE7       29.62R WCI  30
AINSWORTH      CLEAR     31  29  94 E10       29.65R WCI  22
O`NEILL        CLOUDY    33  31  91 SE10      29.73R WCI  25
ORD            CLOUDY    32  29  88 E9        29.70R WCI  24
BROKEN BOW     PTCLDY    34  32  92 E8        29.65R WCI  27
VALENTINE NWR    N/A     35  28  76 E9          N/A  WCI  28
BUTTE            N/A     30  28  92 E13         N/A  WCI  20
HALSEY           N/A     40  29  64 SE5         N/A
SARGENT          N/A     33  24  71 E7          N/A  WCI  27
CHAMBERS         N/A     33  30  90 E7          N/A  WCI  27
EWING            N/A     32  30  92 SE3         N/A
$$

...OBSERVATIONS IN SOUTHWEST NEBRASKA AND FAR NORTHEAST COLORADO...

CITY           SKY/WX    TMP DP  RH WIND       PRES   REMARKS
WRAY           FAIR      36  27  69 E7        29.55F WCI  30
HOLYOKE        FAIR      36  30  80 E5        29.58R WCI  32
IMPERIAL       CLOUDY    38  28  67 NE7       29.58R WCI  33
OGALLALA       PTCLDY    34  28  77 CALM      29.57F
NORTH PLATTE   CLEAR     34  27  75 E8        29.60R WCI  27
MCCOOK         CLEAR     40  30  67 E9        29.59R WCI  34
LEXINGTON      CLEAR     38  32  77 E12       29.63R WCI  31
STAPLETON        N/A     36  29  76 CALM        N/A
GOTHENBURG       N/A     36  30  78 E3          N/A
CALLAWAY         N/A     34  29  83 E6          N/A  WCI  29
$$

...OBSERVATIONS IN CENTRAL LINCOLN COUNTY AREA...

CITY           SKY/WX    TMP DP  RH WIND       PRES   REMARKS
N.P. AIRPORT   CLEAR     34  27  75 E8        29.60R WCI  27
N.P. DOWNTOWN    N/A     40  31  71 CALM        N/A
N.P. SOUTHEAST   N/A     39  29  69 CALM        N/A
N.P. HILLCREST   N/A     40  31  70 E9          N/A  WCI  34
$$

...SOME OBSERVATIONS FROM AROUND THE REGION...

CITY           SKY/WX    TMP DP  RH WIND       PRES   REMARKS
LARAMIE        CLOUDY    26  22  84 E8        29.48F WCI  18
CHEYENNE       LGT SNOW  34  29  82 NE10      29.54R WCI  26
DENVER         CLOUDY    36  29  75 E7        29.50S WCI  30
AKRON          CLOUDY    36  25  64 E9        29.53F WCI  29
SCOTTSBLUFF    CLOUDY    39  26  59 CALM      29.57R
RAPID CITY     CLOUDY    22  20  92 N15       29.69R WCI   9
BISMARCK       CLOUDY    31  24  75 CALM      29.81R
PIERRE         CLOUDY    29  26  89 E10       29.73R WCI  20
SIOUX FALLS    CLOUDY    31  29  92 E6        29.81S WCI  25
OMAHA          CLOUDY    33  27  78 SE9       29.83R WCI  25
GRAND ISLAND   CLOUDY    31  31 100 E10       29.72R FOG     WCI  22
KANSAS CITY    CLEAR     36  29  75 SE8       29.83R WCI  30
WICHITA        PTCLDY    48  32  53 SE14      29.70F
OKLAHOMA CITY  CLEAR     48  32  53 SE10      29.72F
DALLAS         CLEAR     58  37  45 SE10      29.78F
AMARILLO       CLEAR     52  33  48 S9        29.68F
DODGE CITY     CLEAR     49  35  58 SE17      29.59R
HAYS           CLEAR     41  34  76 E12       29.62R
GOODLAND       CLEAR     36  28  73 E8        29.53S WCI  30
$$




USA.gov is the U.S. government's official web portal to all federal, state and local government web resources and services.